owner,sensor,date,latitude,longitude,relative_humidity,qcFlag 
DISL,ioos:station:DISL:KATA:1,2016-04-01T00:00:00Z,30.2583,-88.2131,98.2,1111122 
DISL,ioos:station:DISL:KATA:1,2016-04-01T00:30:00Z,30.2583,-88.2131,98.5,1111122 
DISL,ioos:station:DISL:KATA:1,2016-04-01T01:00:00Z,30.2583,-88.2131,98.7,1111122 
DISL,ioos:station:DISL:KATA:1,2016-04-01T01:30:00Z,30.2583,-88.2131,98.7,1111122 
DISL,ioos:station:DISL:KATA:1,2016-04-01T02:00:00Z,30.2583,-88.2131,99.3,1111122 
DISL,ioos:station:DISL:KATA:1,2016-04-01T02:30:00Z,30.2583,-88.2131,99.6,1111122 
DISL,ioos:station:DISL:KATA:1,2016-04-01T03:00:00Z,30.2583,-88.2131,99.2,1111122 
DISL,ioos:station:DISL:KATA:1,2016-04-01T03:30:00Z,30.2583,-88.2131,98.2,1111122 
DISL,ioos:station:DISL:KATA:1,2016-04-01T04:00:00Z,30.2583,-88.2131,97.5,1111122 
DISL,ioos:station:DISL:KATA:1,2016-04-01T04:30:00Z,30.2583,-88.2131,97.7,1111122 
DISL,ioos:station:DISL:KATA:1,2016-04-01T05:00:00Z,30.2583,-88.2131,97.8,1111122 
DISL,ioos:station:DISL:KATA:1,2016-04-01T05:30:00Z,30.2583,-88.2131,98.1,1111122 
DISL,ioos:station:DISL:KATA:1,2016-04-01T06:00:00Z,30.2583,-88.2131,98.5,1111122 
DISL,ioos:station:DISL:KATA:1,2016-04-01T06:30:00Z,30.2583,-88.2131,98.9,1111122 
DISL,ioos:station:DISL:KATA:1,2016-04-01T07:00:00Z,30.2583,-88.2131,100.0,1111122 
DISL,ioos:station:DISL:KATA:1,2016-04-01T07:30:00Z,30.2583,-88.2131,100.0,1111122 
DISL,ioos:station:DISL:KATA:1,2016-04-01T08:00:00Z,30.2583,-88.2131,100.0,1111122 
DISL,ioos:station:DISL:KATA:1,2016-04-01T08:30:00Z,30.2583,-88.2131,100.0,1111122 
DISL,ioos:station:DISL:KATA:1,2016-04-01T09:00:00Z,30.2583,-88.2131,100.0,1111122 
DISL,ioos:station:DISL:KATA:1,2016-04-01T09:30:00Z,30.2583,-88.2131,100.0,1111122 
DISL,ioos:station:DISL:KATA:1,2016-04-01T10:00:00Z,30.2583,-88.2131,100.0,1111122 
DISL,ioos:station:DISL:KATA:1,2016-04-01T10:30:00Z,30.2583,-88.2131,100.0,1111122 
DISL,ioos:station:DISL:KATA:1,2016-04-01T11:00:00Z,30.2583,-88.2131,100.0,1111122 
DISL,ioos:station:DISL:KATA:1,2016-04-01T11:30:00Z,30.2583,-88.2131,100.0,1111122 
DISL,ioos:station:DISL:KATA:1,2016-04-01T12:00:00Z,30.2583,-88.2131,100.0,1111122 
DISL,ioos:station:DISL:KATA:1,2016-04-01T12:30:00Z,30.2583,-88.2131,100.0,1111122 
DISL,ioos:station:DISL:KATA:1,2016-04-01T13:00:00Z,30.2583,-88.2131,100.0,1111122 
DISL,ioos:station:DISL:KATA:1,2016-04-01T13:30:00Z,30.2583,-88.2131,100.0,1111122 
DISL,ioos:station:DISL:KATA:1,2016-04-01T14:00:00Z,30.2583,-88.2131,100.0,1111122 
DISL,ioos:station:DISL:KATA:1,2016-04-01T14:30:00Z,30.2583,-88.2131,100.0,1111122 
DISL,ioos:station:DISL:KATA:1,2016-04-01T15:00:00Z,30.2583,-88.2131,100.0,1111122 
DISL,ioos:station:DISL:KATA:1,2016-04-01T15:30:00Z,30.2583,-88.2131,98.4,1111122 
DISL,ioos:station:DISL:KATA:1,2016-04-01T16:00:00Z,30.2583,-88.2131,98.3,1111122 
DISL,ioos:station:DISL:KATA:1,2016-04-01T16:30:00Z,30.2583,-88.2131,97.4,1111122 
DISL,ioos:station:DISL:KATA:1,2016-04-01T17:00:00Z,30.2583,-88.2131,97.9,1111122 
DISL,ioos:station:DISL:KATA:1,2016-04-01T17:30:00Z,30.2583,-88.2131,97.2,1111122 
DISL,ioos:station:DISL:KATA:1,2016-04-01T18:00:00Z,30.2583,-88.2131,95.7,1111122 
DISL,ioos:station:DISL:KATA:1,2016-04-01T18:30:00Z,30.2583,-88.2131,96.6,1111122 
DISL,ioos:station:DISL:KATA:1,2016-04-01T19:00:00Z,30.2583,-88.2131,97.9,1111122 
DISL,ioos:station:DISL:KATA:1,2016-04-01T19:30:00Z,30.2583,-88.2131,98.3,1111122 
DISL,ioos:station:DISL:KATA:1,2016-04-01T20:00:00Z,30.2583,-88.2131,97.4,1111122 
DISL,ioos:station:DISL:KATA:1,2016-04-01T20:30:00Z,30.2583,-88.2131,97.1,1111122 
DISL,ioos:station:DISL:KATA:1,2016-04-01T21:00:00Z,30.2583,-88.2131,97.3,1111122 
DISL,ioos:station:DISL:KATA:1,2016-04-01T21:30:00Z,30.2583,-88.2131,97.5,1111122 
DISL,ioos:station:DISL:KATA:1,2016-04-01T22:00:00Z,30.2583,-88.2131,98.4,1111122 
DISL,ioos:station:DISL:KATA:1,2016-04-01T22:30:00Z,30.2583,-88.2131,98.3,1111122 
DISL,ioos:station:DISL:KATA:1,2016-04-01T23:00:00Z,30.2583,-88.2131,98.4,1111122 
DISL,ioos:station:DISL:KATA:1,2016-04-01T23:30:00Z,30.2583,-88.2131,100.0,1111122 
DISL,ioos:station:DISL:KATA:1,2016-04-02T00:00:00Z,30.2583,-88.2131,100.0,1111122 
DISL,ioos:station:DISL:KATA:1,2016-04-02T00:30:00Z,30.2583,-88.2131,100.0,1111122 
DISL,ioos:station:DISL:KATA:1,2016-04-02T01:00:00Z,30.2583,-88.2131,98.3,1111122 
DISL,ioos:station:DISL:KATA:1,2016-04-02T01:30:00Z,30.2583,-88.2131,96.2,1111122 
DISL,ioos:station:DISL:KATA:1,2016-04-02T02:00:00Z,30.2583,-88.2131,96.3,1111122 
DISL,ioos:station:DISL:KATA:1,2016-04-02T02:30:00Z,30.2583,-88.2131,94.2,1111122 
DISL,ioos:station:DISL:KATA:1,2016-04-02T03:00:00Z,30.2583,-88.2131,93.0,1111122 
DISL,ioos:station:DISL:KATA:1,2016-04-02T03:30:00Z,30.2583,-88.2131,93.5,1111122 
DISL,ioos:station:DISL:KATA:1,2016-04-02T04:00:00Z,30.2583,-88.2131,91.5,1111122 
DISL,ioos:station:DISL:KATA:1,2016-04-02T04:30:00Z,30.2583,-88.2131,91.1,1111122 
DISL,ioos:station:DISL:KATA:1,2016-04-02T05:00:00Z,30.2583,-88.2131,86.4,1111122 
DISL,ioos:station:DISL:KATA:1,2016-04-02T05:30:00Z,30.2583,-88.2131,83.4,1111122 
DISL,ioos:station:DISL:KATA:1,2016-04-02T06:00:00Z,30.2583,-88.2131,83.6,1111122 
DISL,ioos:station:DISL:KATA:1,2016-04-02T06:30:00Z,30.2583,-88.2131,85.1,1111122 
DISL,ioos:station:DISL:KATA:1,2016-04-02T07:00:00Z,30.2583,-88.2131,81.0,1111122 
DISL,ioos:station:DISL:KATA:1,2016-04-02T07:30:00Z,30.2583,-88.2131,79.84,1111122 
DISL,ioos:station:DISL:KATA:1,2016-04-02T08:00:00Z,30.2583,-88.2131,79.4,1111122 
DISL,ioos:station:DISL:KATA:1,2016-04-02T08:30:00Z,30.2583,-88.2131,78.85,1111122 
DISL,ioos:station:DISL:KATA:1,2016-04-02T09:00:00Z,30.2583,-88.2131,78.41,1111122 
DISL,ioos:station:DISL:KATA:1,2016-04-02T09:30:00Z,30.2583,-88.2131,76.14,1111122 
DISL,ioos:station:DISL:KATA:1,2016-04-02T10:00:00Z,30.2583,-88.2131,71.05,1111122 
DISL,ioos:station:DISL:KATA:1,2016-04-02T10:30:00Z,30.2583,-88.2131,70.94,1111122 
DISL,ioos:station:DISL:KATA:1,2016-04-02T11:00:00Z,30.2583,-88.2131,70.74,1111122 
DISL,ioos:station:DISL:KATA:1,2016-04-02T11:30:00Z,30.2583,-88.2131,70.07,1111122 
DISL,ioos:station:DISL:KATA:1,2016-04-02T12:00:00Z,30.2583,-88.2131,72.31,1111122 
DISL,ioos:station:DISL:KATA:1,2016-04-02T12:30:00Z,30.2583,-88.2131,67.39,1111122 
DISL,ioos:station:DISL:KATA:1,2016-04-02T13:00:00Z,30.2583,-88.2131,65.28,1111122 
DISL,ioos:station:DISL:KATA:1,2016-04-02T13:30:00Z,30.2583,-88.2131,70.74,1111122 
DISL,ioos:station:DISL:KATA:1,2016-04-02T14:00:00Z,30.2583,-88.2131,59.5,1111122 
DISL,ioos:station:DISL:KATA:1,2016-04-02T14:30:00Z,30.2583,-88.2131,56.31,1111122 
DISL,ioos:station:DISL:KATA:1,2016-04-02T15:00:00Z,30.2583,-88.2131,65.14,1111122 
DISL,ioos:station:DISL:KATA:1,2016-04-02T15:30:00Z,30.2583,-88.2131,55.8,1111122 
DISL,ioos:station:DISL:KATA:1,2016-04-02T16:00:00Z,30.2583,-88.2131,52.78,1111122 
DISL,ioos:station:DISL:KATA:1,2016-04-02T16:30:00Z,30.2583,-88.2131,43.21,1111122 
DISL,ioos:station:DISL:KATA:1,2016-04-02T17:00:00Z,30.2583,-88.2131,50.84,1111122 
DISL,ioos:station:DISL:KATA:1,2016-04-02T17:30:00Z,30.2583,-88.2131,54.67,1111122 
DISL,ioos:station:DISL:KATA:1,2016-04-02T18:00:00Z,30.2583,-88.2131,43.23,1111122 
DISL,ioos:station:DISL:KATA:1,2016-04-02T18:30:00Z,30.2583,-88.2131,43.71,1111122 
DISL,ioos:station:DISL:KATA:1,2016-04-02T19:00:00Z,30.2583,-88.2131,38.68,1111122 
DISL,ioos:station:DISL:KATA:1,2016-04-02T19:30:00Z,30.2583,-88.2131,45.57,1111122 
DISL,ioos:station:DISL:KATA:1,2016-04-02T20:00:00Z,30.2583,-88.2131,34.65,1111122 
DISL,ioos:station:DISL:KATA:1,2016-04-02T20:30:00Z,30.2583,-88.2131,39.5,1111122 
DISL,ioos:station:DISL:KATA:1,2016-04-02T21:00:00Z,30.2583,-88.2131,31.66,1111122 
DISL,ioos:station:DISL:KATA:1,2016-04-02T21:30:00Z,30.2583,-88.2131,48.22,1111122 
DISL,ioos:station:DISL:KATA:1,2016-04-02T22:00:00Z,30.2583,-88.2131,37.05,1111122 
DISL,ioos:station:DISL:KATA:1,2016-04-02T22:30:00Z,30.2583,-88.2131,42.18,1111122 
DISL,ioos:station:DISL:KATA:1,2016-04-02T23:00:00Z,30.2583,-88.2131,34.03,1111122 
DISL,ioos:station:DISL:KATA:1,2016-04-02T23:30:00Z,30.2583,-88.2131,38.92,1111122 
DISL,ioos:station:DISL:KATA:1,2016-04-03T00:00:00Z,30.2583,-88.2131,39.16,1111122 
DISL,ioos:station:DISL:KATA:1,2016-04-03T00:30:00Z,30.2583,-88.2131,39.36,1111122 
DISL,ioos:station:DISL:KATA:1,2016-04-03T01:00:00Z,30.2583,-88.2131,47.2,1111122 
DISL,ioos:station:DISL:KATA:1,2016-04-03T01:30:00Z,30.2583,-88.2131,41.13,1111122 
DISL,ioos:station:DISL:KATA:1,2016-04-03T02:00:00Z,30.2583,-88.2131,37.73,1111122 
DISL,ioos:station:DISL:KATA:1,2016-04-03T02:30:00Z,30.2583,-88.2131,37.94,1111122 
DISL,ioos:station:DISL:KATA:1,2016-04-03T03:00:00Z,30.2583,-88.2131,46.05,1111122 
DISL,ioos:station:DISL:KATA:1,2016-04-03T03:30:00Z,30.2583,-88.2131,48.44,1111122 
DISL,ioos:station:DISL:KATA:1,2016-04-03T04:00:00Z,30.2583,-88.2131,51.59,1111122 
DISL,ioos:station:DISL:KATA:1,2016-04-03T04:30:00Z,30.2583,-88.2131,53.63,1111122 
DISL,ioos:station:DISL:KATA:1,2016-04-03T05:00:00Z,30.2583,-88.2131,51.29,1111122 
DISL,ioos:station:DISL:KATA:1,2016-04-03T05:30:00Z,30.2583,-88.2131,50.1,1111122 
DISL,ioos:station:DISL:KATA:1,2016-04-03T06:00:00Z,30.2583,-88.2131,50.68,1111122 
DISL,ioos:station:DISL:KATA:1,2016-04-03T06:30:00Z,30.2583,-88.2131,51.02,1111122 
DISL,ioos:station:DISL:KATA:1,2016-04-03T07:00:00Z,30.2583,-88.2131,49.66,1111122 
DISL,ioos:station:DISL:KATA:1,2016-04-03T07:30:00Z,30.2583,-88.2131,62.25,1111122 
DISL,ioos:station:DISL:KATA:1,2016-04-03T08:00:00Z,30.2583,-88.2131,56.38,1111122 
DISL,ioos:station:DISL:KATA:1,2016-04-03T08:30:00Z,30.2583,-88.2131,57.98,1111122 
DISL,ioos:station:DISL:KATA:1,2016-04-03T09:00:00Z,30.2583,-88.2131,57.58,1111122 
DISL,ioos:station:DISL:KATA:1,2016-04-03T09:30:00Z,30.2583,-88.2131,55.85,1111122 
DISL,ioos:station:DISL:KATA:1,2016-04-03T10:00:00Z,30.2583,-88.2131,59.45,1111122 
DISL,ioos:station:DISL:KATA:1,2016-04-03T10:30:00Z,30.2583,-88.2131,61.25,1111122 
DISL,ioos:station:DISL:KATA:1,2016-04-03T11:00:00Z,30.2583,-88.2131,64.82,1111122 
DISL,ioos:station:DISL:KATA:1,2016-04-03T11:30:00Z,30.2583,-88.2131,60.61,1111122 
DISL,ioos:station:DISL:KATA:1,2016-04-03T12:00:00Z,30.2583,-88.2131,61.73,1111122 
DISL,ioos:station:DISL:KATA:1,2016-04-03T12:30:00Z,30.2583,-88.2131,54.8,1111122 
DISL,ioos:station:DISL:KATA:1,2016-04-03T13:00:00Z,30.2583,-88.2131,57.17,1111122 
DISL,ioos:station:DISL:KATA:1,2016-04-03T13:30:00Z,30.2583,-88.2131,56.38,1111122 
DISL,ioos:station:DISL:KATA:1,2016-04-03T14:00:00Z,30.2583,-88.2131,51.93,1111122 
DISL,ioos:station:DISL:KATA:1,2016-04-03T14:30:00Z,30.2583,-88.2131,60.42,1111122 
DISL,ioos:station:DISL:KATA:1,2016-04-03T15:00:00Z,30.2583,-88.2131,47.69,1111122 
DISL,ioos:station:DISL:KATA:1,2016-04-03T15:30:00Z,30.2583,-88.2131,43.48,1111122 
DISL,ioos:station:DISL:KATA:1,2016-04-03T16:00:00Z,30.2583,-88.2131,49.58,1111122 
DISL,ioos:station:DISL:KATA:1,2016-04-03T16:30:00Z,30.2583,-88.2131,49.34,1111122 
DISL,ioos:station:DISL:KATA:1,2016-04-03T17:00:00Z,30.2583,-88.2131,50.19,1111122 
DISL,ioos:station:DISL:KATA:1,2016-04-03T17:30:00Z,30.2583,-88.2131,45.23,1111122 
DISL,ioos:station:DISL:KATA:1,2016-04-03T18:00:00Z,30.2583,-88.2131,42.07,1111122 
DISL,ioos:station:DISL:KATA:1,2016-04-03T18:30:00Z,30.2583,-88.2131,42.24,1111122 
DISL,ioos:station:DISL:KATA:1,2016-04-03T19:00:00Z,30.2583,-88.2131,40.61,1111122 
DISL,ioos:station:DISL:KATA:1,2016-04-03T19:30:00Z,30.2583,-88.2131,44.51,1111122 
DISL,ioos:station:DISL:KATA:1,2016-04-03T20:00:00Z,30.2583,-88.2131,49.74,1111122 
DISL,ioos:station:DISL:KATA:1,2016-04-03T20:30:00Z,30.2583,-88.2131,52.43,1111122 
DISL,ioos:station:DISL:KATA:1,2016-04-03T21:00:00Z,30.2583,-88.2131,50.63,1111122 
DISL,ioos:station:DISL:KATA:1,2016-04-03T21:30:00Z,30.2583,-88.2131,46.83,1111122 
DISL,ioos:station:DISL:KATA:1,2016-04-03T22:00:00Z,30.2583,-88.2131,56.29,1111122 
DISL,ioos:station:DISL:KATA:1,2016-04-03T22:30:00Z,30.2583,-88.2131,54.93,1111122 
DISL,ioos:station:DISL:KATA:1,2016-04-03T23:00:00Z,30.2583,-88.2131,56.66,1111122 
DISL,ioos:station:DISL:KATA:1,2016-04-03T23:30:00Z,30.2583,-88.2131,49.34,1111122 
DISL,ioos:station:DISL:KATA:1,2016-04-04T00:00:00Z,30.2583,-88.2131,59.04,1111122 
DISL,ioos:station:DISL:KATA:1,2016-04-04T00:30:00Z,30.2583,-88.2131,56.84,1111122 
DISL,ioos:station:DISL:KATA:1,2016-04-04T01:00:00Z,30.2583,-88.2131,58.74,1111122 
DISL,ioos:station:DISL:KATA:1,2016-04-04T01:30:00Z,30.2583,-88.2131,59.45,1111122 
DISL,ioos:station:DISL:KATA:1,2016-04-04T02:00:00Z,30.2583,-88.2131,55.89,1111122 
DISL,ioos:station:DISL:KATA:1,2016-04-04T02:30:00Z,30.2583,-88.2131,66.37,1111122 
DISL,ioos:station:DISL:KATA:1,2016-04-04T03:00:00Z,30.2583,-88.2131,69.09,1111122 
DISL,ioos:station:DISL:KATA:1,2016-04-04T03:30:00Z,30.2583,-88.2131,70.58,1111122 
DISL,ioos:station:DISL:KATA:1,2016-04-04T04:00:00Z,30.2583,-88.2131,66.98,1111122 
DISL,ioos:station:DISL:KATA:1,2016-04-04T04:30:00Z,30.2583,-88.2131,68.55,1111122 
DISL,ioos:station:DISL:KATA:1,2016-04-04T05:00:00Z,30.2583,-88.2131,66.58,1111122 
DISL,ioos:station:DISL:KATA:1,2016-04-04T05:30:00Z,30.2583,-88.2131,70.11,1111122 
DISL,ioos:station:DISL:KATA:1,2016-04-04T06:00:00Z,30.2583,-88.2131,71.3,1111122 
DISL,ioos:station:DISL:KATA:1,2016-04-04T06:30:00Z,30.2583,-88.2131,68.31,1111122 
DISL,ioos:station:DISL:KATA:1,2016-04-04T07:00:00Z,30.2583,-88.2131,67.03,1111122 
DISL,ioos:station:DISL:KATA:1,2016-04-04T07:30:00Z,30.2583,-88.2131,67.4,1111122 
DISL,ioos:station:DISL:KATA:1,2016-04-04T08:00:00Z,30.2583,-88.2131,76.46,1111122 
DISL,ioos:station:DISL:KATA:1,2016-04-04T08:30:00Z,30.2583,-88.2131,66.96,1111122 
DISL,ioos:station:DISL:KATA:1,2016-04-04T09:00:00Z,30.2583,-88.2131,71.41,1111122 
DISL,ioos:station:DISL:KATA:1,2016-04-04T09:30:00Z,30.2583,-88.2131,66.25,1111122 
DISL,ioos:station:DISL:KATA:1,2016-04-04T10:00:00Z,30.2583,-88.2131,69.85,1111122 
DISL,ioos:station:DISL:KATA:1,2016-04-04T10:30:00Z,30.2583,-88.2131,64.56,1111122 
DISL,ioos:station:DISL:KATA:1,2016-04-04T11:00:00Z,30.2583,-88.2131,73.35,1111122 
DISL,ioos:station:DISL:KATA:1,2016-04-04T11:30:00Z,30.2583,-88.2131,64.6,1111122 
DISL,ioos:station:DISL:KATA:1,2016-04-04T12:00:00Z,30.2583,-88.2131,67.52,1111122 
DISL,ioos:station:DISL:KATA:1,2016-04-04T12:30:00Z,30.2583,-88.2131,68.02,1111122 
DISL,ioos:station:DISL:KATA:1,2016-04-04T13:00:00Z,30.2583,-88.2131,67.45,1111122 
DISL,ioos:station:DISL:KATA:1,2016-04-04T13:30:00Z,30.2583,-88.2131,58.08,1111122 
DISL,ioos:station:DISL:KATA:1,2016-04-04T14:00:00Z,30.2583,-88.2131,58.58,1111122 
DISL,ioos:station:DISL:KATA:1,2016-04-04T14:30:00Z,30.2583,-88.2131,58.27,1111122 
DISL,ioos:station:DISL:KATA:1,2016-04-04T15:00:00Z,30.2583,-88.2131,58.3,1111122 
DISL,ioos:station:DISL:KATA:1,2016-04-04T15:30:00Z,30.2583,-88.2131,50.08,1111122 
DISL,ioos:station:DISL:KATA:1,2016-04-04T16:00:00Z,30.2583,-88.2131,54.46,1111122 
DISL,ioos:station:DISL:KATA:1,2016-04-04T16:30:00Z,30.2583,-88.2131,57.3,1111122 
DISL,ioos:station:DISL:KATA:1,2016-04-04T17:00:00Z,30.2583,-88.2131,60.96,1111122 
DISL,ioos:station:DISL:KATA:1,2016-04-04T17:30:00Z,30.2583,-88.2131,61.02,1111122 
DISL,ioos:station:DISL:KATA:1,2016-04-04T18:00:00Z,30.2583,-88.2131,53.29,1111122 
DISL,ioos:station:DISL:KATA:1,2016-04-04T18:30:00Z,30.2583,-88.2131,58.75,1111122 
DISL,ioos:station:DISL:KATA:1,2016-04-04T19:00:00Z,30.2583,-88.2131,58.68,1111122 
DISL,ioos:station:DISL:KATA:1,2016-04-04T19:30:00Z,30.2583,-88.2131,65.54,1111122 
DISL,ioos:station:DISL:KATA:1,2016-04-04T20:00:00Z,30.2583,-88.2131,65.6,1111122 
DISL,ioos:station:DISL:KATA:1,2016-04-04T20:30:00Z,30.2583,-88.2131,65.17,1111122 
DISL,ioos:station:DISL:KATA:1,2016-04-04T21:00:00Z,30.2583,-88.2131,62.39,1111122 
DISL,ioos:station:DISL:KATA:1,2016-04-04T21:30:00Z,30.2583,-88.2131,58.08,1111122 
DISL,ioos:station:DISL:KATA:1,2016-04-04T22:00:00Z,30.2583,-88.2131,61.47,1111122 
DISL,ioos:station:DISL:KATA:1,2016-04-04T22:30:00Z,30.2583,-88.2131,57.12,1111122 
DISL,ioos:station:DISL:KATA:1,2016-04-04T23:00:00Z,30.2583,-88.2131,56.82,1111122 
DISL,ioos:station:DISL:KATA:1,2016-04-04T23:30:00Z,30.2583,-88.2131,59.26,1111122 
DISL,ioos:station:DISL:KATA:1,2016-04-05T00:00:00Z,30.2583,-88.2131,61.95,1111122 
DISL,ioos:station:DISL:KATA:1,2016-04-05T00:30:00Z,30.2583,-88.2131,62.43,1111122 
DISL,ioos:station:DISL:KATA:1,2016-04-05T01:00:00Z,30.2583,-88.2131,64.37,1111122 
DISL,ioos:station:DISL:KATA:1,2016-04-05T01:30:00Z,30.2583,-88.2131,70.85,1111122 
DISL,ioos:station:DISL:KATA:1,2016-04-05T02:00:00Z,30.2583,-88.2131,68.75,1111122 
DISL,ioos:station:DISL:KATA:1,2016-04-05T02:30:00Z,30.2583,-88.2131,73.77,1111122 
DISL,ioos:station:DISL:KATA:1,2016-04-05T03:00:00Z,30.2583,-88.2131,77.94,1111122 
DISL,ioos:station:DISL:KATA:1,2016-04-05T03:30:00Z,30.2583,-88.2131,75.47,1111122 
DISL,ioos:station:DISL:KATA:1,2016-04-05T04:00:00Z,30.2583,-88.2131,77.57,1111122 
DISL,ioos:station:DISL:KATA:1,2016-04-05T04:30:00Z,30.2583,-88.2131,78.38,1111122 
DISL,ioos:station:DISL:KATA:1,2016-04-05T05:00:00Z,30.2583,-88.2131,77.13,1111122 
DISL,ioos:station:DISL:KATA:1,2016-04-05T05:30:00Z,30.2583,-88.2131,79.74,1111122 
DISL,ioos:station:DISL:KATA:1,2016-04-05T06:00:00Z,30.2583,-88.2131,81.3,1111122 
DISL,ioos:station:DISL:KATA:1,2016-04-05T06:30:00Z,30.2583,-88.2131,79.64,1111122 
DISL,ioos:station:DISL:KATA:1,2016-04-05T07:00:00Z,30.2583,-88.2131,82.4,1111122 
DISL,ioos:station:DISL:KATA:1,2016-04-05T07:30:00Z,30.2583,-88.2131,84.5,1111122 
DISL,ioos:station:DISL:KATA:1,2016-04-05T08:00:00Z,30.2583,-88.2131,83.5,1111122 
DISL,ioos:station:DISL:KATA:1,2016-04-05T08:30:00Z,30.2583,-88.2131,83.7,1111122 
DISL,ioos:station:DISL:KATA:1,2016-04-05T09:00:00Z,30.2583,-88.2131,80.6,1111122 
DISL,ioos:station:DISL:KATA:1,2016-04-05T09:30:00Z,30.2583,-88.2131,74.9,1111122 
DISL,ioos:station:DISL:KATA:1,2016-04-05T10:00:00Z,30.2583,-88.2131,73.21,1111122 
DISL,ioos:station:DISL:KATA:1,2016-04-05T10:30:00Z,30.2583,-88.2131,78.13,1111122 
DISL,ioos:station:DISL:KATA:1,2016-04-05T11:00:00Z,30.2583,-88.2131,78.24,1111122 
DISL,ioos:station:DISL:KATA:1,2016-04-05T11:30:00Z,30.2583,-88.2131,80.3,1111122 
DISL,ioos:station:DISL:KATA:1,2016-04-05T12:00:00Z,30.2583,-88.2131,78.48,1111122 
DISL,ioos:station:DISL:KATA:1,2016-04-05T12:30:00Z,30.2583,-88.2131,76.92,1111122 
DISL,ioos:station:DISL:KATA:1,2016-04-05T13:00:00Z,30.2583,-88.2131,72.84,1111122 
DISL,ioos:station:DISL:KATA:1,2016-04-05T13:30:00Z,30.2583,-88.2131,68.59,1111122 
DISL,ioos:station:DISL:KATA:1,2016-04-05T14:00:00Z,30.2583,-88.2131,59.76,1111122 
DISL,ioos:station:DISL:KATA:1,2016-04-05T14:30:00Z,30.2583,-88.2131,54.6,1111122 
DISL,ioos:station:DISL:KATA:1,2016-04-05T15:00:00Z,30.2583,-88.2131,53.33,1111122 
DISL,ioos:station:DISL:KATA:1,2016-04-05T15:30:00Z,30.2583,-88.2131,58.41,1111122 
DISL,ioos:station:DISL:KATA:1,2016-04-05T16:00:00Z,30.2583,-88.2131,61.47,1111122 
DISL,ioos:station:DISL:KATA:1,2016-04-05T16:30:00Z,30.2583,-88.2131,67.13,1111122 
DISL,ioos:station:DISL:KATA:1,2016-04-05T17:00:00Z,30.2583,-88.2131,67.61,1111122 
DISL,ioos:station:DISL:KATA:1,2016-04-05T17:30:00Z,30.2583,-88.2131,57.9,1111122 
DISL,ioos:station:DISL:KATA:1,2016-04-05T18:00:00Z,30.2583,-88.2131,56.92,1111122 
DISL,ioos:station:DISL:KATA:1,2016-04-05T18:30:00Z,30.2583,-88.2131,61.5,1111122 
DISL,ioos:station:DISL:KATA:1,2016-04-05T19:00:00Z,30.2583,-88.2131,59.02,1111122 
DISL,ioos:station:DISL:KATA:1,2016-04-05T19:30:00Z,30.2583,-88.2131,63.98,1111122 
DISL,ioos:station:DISL:KATA:1,2016-04-05T20:00:00Z,30.2583,-88.2131,61.77,1111122 
DISL,ioos:station:DISL:KATA:1,2016-04-05T20:30:00Z,30.2583,-88.2131,68.01,1111122 
DISL,ioos:station:DISL:KATA:1,2016-04-05T21:00:00Z,30.2583,-88.2131,64.59,1111122 
DISL,ioos:station:DISL:KATA:1,2016-04-05T21:30:00Z,30.2583,-88.2131,66.96,1111122 
DISL,ioos:station:DISL:KATA:1,2016-04-05T22:00:00Z,30.2583,-88.2131,67.94,1111122 
DISL,ioos:station:DISL:KATA:1,2016-04-05T22:30:00Z,30.2583,-88.2131,65.5,1111122 
DISL,ioos:station:DISL:KATA:1,2016-04-05T23:00:00Z,30.2583,-88.2131,64.04,1111122 
DISL,ioos:station:DISL:KATA:1,2016-04-05T23:30:00Z,30.2583,-88.2131,66.49,1111122 
DISL,ioos:station:DISL:KATA:1,2016-04-06T00:00:00Z,30.2583,-88.2131,70.42,1111122 
DISL,ioos:station:DISL:KATA:1,2016-04-06T00:30:00Z,30.2583,-88.2131,73.05,1111122 
DISL,ioos:station:DISL:KATA:1,2016-04-06T01:00:00Z,30.2583,-88.2131,75.6,1111122 
DISL,ioos:station:DISL:KATA:1,2016-04-06T01:30:00Z,30.2583,-88.2131,72.41,1111122 
DISL,ioos:station:DISL:KATA:1,2016-04-06T02:00:00Z,30.2583,-88.2131,77.06,1111122 
DISL,ioos:station:DISL:KATA:1,2016-04-06T02:30:00Z,30.2583,-88.2131,82.3,1111122 
DISL,ioos:station:DISL:KATA:1,2016-04-06T03:00:00Z,30.2583,-88.2131,90.0,1111122 
DISL,ioos:station:DISL:KATA:1,2016-04-06T03:30:00Z,30.2583,-88.2131,88.9,1111122 
DISL,ioos:station:DISL:KATA:1,2016-04-06T04:00:00Z,30.2583,-88.2131,88.3,1111122 
DISL,ioos:station:DISL:KATA:1,2016-04-06T04:30:00Z,30.2583,-88.2131,85.9,1111122 
DISL,ioos:station:DISL:KATA:1,2016-04-06T05:00:00Z,30.2583,-88.2131,89.1,1111122 
DISL,ioos:station:DISL:KATA:1,2016-04-06T05:30:00Z,30.2583,-88.2131,89.2,1111122 
DISL,ioos:station:DISL:KATA:1,2016-04-06T06:00:00Z,30.2583,-88.2131,90.7,1111122 
DISL,ioos:station:DISL:KATA:1,2016-04-06T06:30:00Z,30.2583,-88.2131,89.8,1111122 
DISL,ioos:station:DISL:KATA:1,2016-04-06T07:00:00Z,30.2583,-88.2131,88.5,1111122 
DISL,ioos:station:DISL:KATA:1,2016-04-06T07:30:00Z,30.2583,-88.2131,89.0,1111122 
DISL,ioos:station:DISL:KATA:1,2016-04-06T08:00:00Z,30.2583,-88.2131,90.2,1111122 
DISL,ioos:station:DISL:KATA:1,2016-04-06T08:30:00Z,30.2583,-88.2131,94.0,1111122 
DISL,ioos:station:DISL:KATA:1,2016-04-06T09:00:00Z,30.2583,-88.2131,95.0,1111122 
DISL,ioos:station:DISL:KATA:1,2016-04-06T09:30:00Z,30.2583,-88.2131,95.1,1111122 
DISL,ioos:station:DISL:KATA:1,2016-04-06T10:00:00Z,30.2583,-88.2131,93.5,1111122 
DISL,ioos:station:DISL:KATA:1,2016-04-06T10:30:00Z,30.2583,-88.2131,94.9,1111122 
DISL,ioos:station:DISL:KATA:1,2016-04-06T11:00:00Z,30.2583,-88.2131,96.2,1111122 
DISL,ioos:station:DISL:KATA:1,2016-04-06T11:30:00Z,30.2583,-88.2131,95.0,1111122 
DISL,ioos:station:DISL:KATA:1,2016-04-06T12:00:00Z,30.2583,-88.2131,89.5,1111122 
DISL,ioos:station:DISL:KATA:1,2016-04-06T12:30:00Z,30.2583,-88.2131,86.3,1111122 
DISL,ioos:station:DISL:KATA:1,2016-04-06T13:00:00Z,30.2583,-88.2131,87.5,1111122 
DISL,ioos:station:DISL:KATA:1,2016-04-06T13:30:00Z,30.2583,-88.2131,87.5,1111122 
DISL,ioos:station:DISL:KATA:1,2016-04-06T14:00:00Z,30.2583,-88.2131,84.5,1111122 
DISL,ioos:station:DISL:KATA:1,2016-04-06T14:30:00Z,30.2583,-88.2131,79.35,1111122 
DISL,ioos:station:DISL:KATA:1,2016-04-06T15:00:00Z,30.2583,-88.2131,72.22,1111122 
DISL,ioos:station:DISL:KATA:1,2016-04-06T15:30:00Z,30.2583,-88.2131,77.37,1111122 
DISL,ioos:station:DISL:KATA:1,2016-04-06T16:00:00Z,30.2583,-88.2131,73.81,1111122 
DISL,ioos:station:DISL:KATA:1,2016-04-06T16:30:00Z,30.2583,-88.2131,76.97,1111122 
DISL,ioos:station:DISL:KATA:1,2016-04-06T17:00:00Z,30.2583,-88.2131,80.3,1111122 
DISL,ioos:station:DISL:KATA:1,2016-04-06T17:30:00Z,30.2583,-88.2131,84.5,1111122 
DISL,ioos:station:DISL:KATA:1,2016-04-06T18:00:00Z,30.2583,-88.2131,84.4,1111122 
DISL,ioos:station:DISL:KATA:1,2016-04-06T18:30:00Z,30.2583,-88.2131,83.7,1111122 
DISL,ioos:station:DISL:KATA:1,2016-04-06T19:00:00Z,30.2583,-88.2131,84.8,1111122 
DISL,ioos:station:DISL:KATA:1,2016-04-06T19:30:00Z,30.2583,-88.2131,86.0,1111122 
DISL,ioos:station:DISL:KATA:1,2016-04-06T20:00:00Z,30.2583,-88.2131,81.7,1111122 
DISL,ioos:station:DISL:KATA:1,2016-04-06T20:30:00Z,30.2583,-88.2131,83.9,1111122 
DISL,ioos:station:DISL:KATA:1,2016-04-06T21:00:00Z,30.2583,-88.2131,81.9,1111122 
DISL,ioos:station:DISL:KATA:1,2016-04-06T21:30:00Z,30.2583,-88.2131,85.1,1111122 
DISL,ioos:station:DISL:KATA:1,2016-04-06T22:00:00Z,30.2583,-88.2131,86.5,1111122 
DISL,ioos:station:DISL:KATA:1,2016-04-06T22:30:00Z,30.2583,-88.2131,88.8,1111122 
DISL,ioos:station:DISL:KATA:1,2016-04-06T23:00:00Z,30.2583,-88.2131,88.8,1111122 
DISL,ioos:station:DISL:KATA:1,2016-04-06T23:30:00Z,30.2583,-88.2131,88.1,1111122 
DISL,ioos:station:DISL:KATA:1,2016-04-07T00:00:00Z,30.2583,-88.2131,82.0,1111122 